Hourly Data Report for October 16, 2016

All times are specified in Local Standard Time (LST). Add 1 hour to adjust for Daylight Saving Time where and when it is observed.

ST LEONARD CS
NEW BRUNSWICK

47°09'28.050" N
67°49'55.014" W
245.00 m
810I001
71019
WIY

Download Data

Hourly Data (October 2016)
Hourly Data Report for October 16, 2016
Temp Definition
°C
Dew Point Temp Definition
°C
Rel Hum Definition
%
Wind Dir Definition
10's deg

Wind Spd Definition
km/h
Visibility Definition
km
Stn Press Definition
kPa
Hmdx Definition


Wind Chill Definition


Weather Definition


TIME
00:00 6.1 -0.6 62 18 19   99.25     LegendNANA
01:00 5.6 -0.7 64 18 20   99.20     LegendNANA
02:00 5.1 -1.1 64 18 18   99.13     LegendNANA
03:00 4.2 -1.0 69 18 18   99.06     LegendNANA
04:00 3.6 -0.9 73 17 13   99.00     LegendNANA
05:00 3.1 -0.7 76 16 16   98.89     LegendNANA
06:00 2.5 -0.6 80 16 12   98.87     LegendNANA
07:00 3.0 0.2 82 17 18   98.74     LegendNANA
08:00 3.5 0.8 83 16 13   98.73     LegendNANA
09:00 4.7 1.6 80 18 14   98.66     LegendNANA
10:00 6.8 2.8 76 18 21   98.54     LegendNANA
11:00 8.5 3.9 73 16 18   98.44     LegendNANA
12:00 9.8 4.8 71 17 17   98.37     LegendNANA
13:00 10.9 5.5 69 17 19   98.21     LegendNANA
14:00 11.4 5.9 69 18 18   98.11     LegendNANA
15:00 11.9 6.2 68 17 16   98.04     LegendNANA
16:00 10.4 7.9 85 19 11   98.04     LegendNANA
17:00 9.6 8.5 93 19 14   98.01     LegendNANA
18:00 9.4 8.7 95 18 16   97.91     LegendNANA
19:00 9.6 8.8 95 19 8   97.89     LegendNANA
20:00 9.6 9.0 96 19 11   97.85     LegendNANA
21:00 9.9 9.4 97 18 17   97.84     LegendNANA
22:00 10.1 9.6 97 19 9   97.79     LegendNANA
23:00 10.2 9.7 97 20 10   97.78     LegendNANA

Notes on Data Quality.

Legend

  • E = Estimated
  • M = Missing
  • NA = Not Available
  • ‡ = Partner data that is not subject to review by the National Climate Archives
Date modified: